Location: *
(1.3500°S, 147.5000°W)
Time: 16:26:56
(UTC+00:00)

ARIANE 5 DEB (SYLDA) - Pass Details

Date: 07 April 2020
Orbit: 304 x 18703 km, 4.7° (Epoch: 26 May)

Event Time Altitude Azimuth Distance (km) Brightness Sun altitude
Rises 05:03:45 0° 274° (W) 9,456 11.8 -17.9°
Reaches altitude 10° 05:13:48 10° 273° (W) 5,708 10.1 -20.4°
Maximum altitude 05:25:34 79° 187° (S) 821 4.5 -23.4°
Enters shadow 05:26:13 63° 121° (ESE) 804 4.3 -23.5°
